Regional Weather Roundup
Issued by NWS

Home | Current Version | Previous Version | Graphics & Text | Print | Product List | Glossary On
Versions: 1 2 3 4 5 6 7 8 9 10 11 12 13 14 15 16 17 18 19 20 21 22 23 24 25 26 27 28 29 30 31 32 33 34 35 36 37 38 39 40 41 42 43 44 45 46 47 48 49 50
000
ASUS43 KBIS 271401
RWRND

NORTH DAKOTA REGIONAL WEATHER ROUNDUP
NATIONAL WEATHER SERVICE BISMARCK ND
800 AM CST TUE JAN 27 2015

NOTE: "FAIR" INDICATES FEW OR NO CLOUDS BELOW 12,000 FEET WITH NO
SIGNIFICANT WEATHER AND/OR OBSTRUCTIONS TO VISIBILITY.


NDZ001>003-009>011-017-271500-
NORTHWEST NORTH DAKOTA

CITY           SKY/WX    TMP DP  RH WIND       PRES   REMARKS
WILLISTON      CLOUDY    29  27  92 S5        29.83S
MINOT          PTCLDY    30  27  88 S5        29.84S
MINOT AFB      PTCLDY    26  26 100 S5        29.84S WCI  20
$$

NDZ018>021-031>035-040>046-271500-
SOUTHWEST NORTH DAKOTA

CITY           SKY/WX    TMP DP  RH WIND       PRES   REMARKS
BISMARCK       PTCLDY    31  28  89 SE8       29.91F
DICKINSON      PTCLDY    39  30  70 W7        29.83S
GARRISON         N/A     28  26  92 SE5       29.85F
HETTINGER ARPT CLEAR     29  26  89 W3        29.89S
$$

NDZ004>008-012>016-024-026-027-054-271500-
NORTHEAST NORTH DAKOTA

CITY           SKY/WX    TMP DP  RH WIND       PRES   REMARKS
GRAND FORKS    FOG       27  25  92 SE13      30.03S VSB 3/4 WCI  16
GRND FRKS AFB  CLOUDY    25  24  94 S8        30.03R WCI  16
DEVILS LAKE    PTCLDY    27  25  93 SE9       29.94R WCI  17
$$

NDZ022-023-025-028>030-036>039-047>053-271500-
SOUTHEAST NORTH DAKOTA

CITY           SKY/WX    TMP DP  RH WIND       PRES   REMARKS
FARGO          FOG       27  25  92 S12       30.07R VSB 1   WCI  17
JAMESTOWN      PTCLDY    29  27  92 SE10      29.98R WCI  20
$$



USA.gov is the U.S. government's official web portal to all federal, state and local government web resources and services.